Regional Weather Roundup
Issued by NWS

Home | Current Version | Previous Version | Text Only | Print | Product List | Glossary On
Versions: 1 2 3 4 5 6 7 8 9 10 11 12 13 14 15 16 17 18 19 20 21 22 23 24 25 26 27 28 29 30 31 32 33 34 35 36 37 38 39 40 41 42 43 44 45 46 47 48 49 50
000
ASUS44 KFWD 011010
RWRTX
NORTH TEXAS HOURLY WEATHER ROUNDUP
NATIONAL WEATHER SERVICE FORT WORTH TX
500 AM CDT WED OCT 01 2014

NOTE: "FAIR" INDICATES FEW OR NO CLOUDS BELOW 12,000 FEET WITH NO
SIGNIFICANT WEATHER AND/OR OBSTRUCTIONS TO VISIBILITY.

TXZ118-119-011100-
DALLAS/FORT WORTH METROPLEX

CITY           SKY/WX    TMP DP  RH WIND       PRES   REMARKS
DFW AIRPORT    CLEAR     76  69  79 S9        29.79R
DALLAS LOVE    CLEAR     75  69  81 S10       29.80R
FTW MEACHAM    CLEAR     77  69  76 S13       29.78R
DAL-EXECUTIVE  CLEAR     75  69  81 S5        29.80R
FTW-ALLIANCE   PTCLDY    74  68  81 S9        29.77S
FTW-NAS-JRB    CLEAR     78  67  68 S13       29.82R
FTW-SPINKS     CLEAR     74  68  81 S5        29.81R
ARLINGTON      CLEAR     74  68  81 S7        29.80R
GRAND PRAIRIE  CLEAR     74  67  78 S5        29.81R
ADDISON        CLEAR     76  67  76 S10       29.81S
MESQUITE       CLEAR     72  69  92 SE5       29.81R
LANCASTER      CLEAR     72  67  84 S3        29.82R
$$

TXZ091>094-102>105-117-120-121-131>134-011100-
NORTH CENTRAL TEXAS

CITY           SKY/WX    TMP DP  RH WIND       PRES   REMARKS
SHRMAN/DENISON CLEAR     73  68  83 SE12      29.79F
GAINESVILLE    PTCLDY    72  68  86 SE7       29.80R
BOWIE          PTCLDY    72  65  80 SE5       29.79S
BRIDGEPORT     CLEAR     73  64  73 S5        29.79R
DECATUR        CLEAR     74  65  75 S10       29.79R
DENTON         CLEAR     74  68  81 SE12      29.77F
MCKINNEY       CLEAR     72  69  90 SE7       29.80R
GREENVILLE     CLEAR     70  68  94 SE5       29.81S
ROCKWALL       CLEAR     73  70  91 S13       29.80R
TERRELL        CLEAR     74  70  87 S3        29.82R
WAXAHACHIE     CLEAR     72  71  97 S5        29.82R
CLEBURNE       CLEAR     72  72 100 S7        29.82R
GRANBURY       CLEAR     76  68  77 SE8       29.80R
$$

TXZ083>090-098>101-113>116-127>130-139>142-154-155-011100-
WESTERN NORTH TEXAS

CITY           SKY/WX    TMP DP  RH WIND       PRES   REMARKS
WICHITA FALLS  PTCLDY    74  62  66 S13       29.73S
WF-KICKAPOO    PTCLDY    73  62  69 SE13      29.75S
VERNON         CLEAR     73  61  64 S12       29.72S
ABILENE        CLEAR     74  61  63 S8        29.78S
ABILENE-DYESS  CLEAR     74  62  64 S8G18     29.77R
BRECKENRIDGE   CLEAR     75  62  63 S7        29.77R
GRAHAM         PTCLDY    75  63  65 SE7       29.76R
MINERAL WELLS  CLEAR     70  64  81 SE12      29.77S
STEPHENVILLE   CLEAR     70  65  84 S6        29.83R
COMANCHE       CLEAR     73  65  78 S12       29.81R
BROWNWOOD      PTCLDY    68  64  88 S3        29.82R
COLEMAN        CLEAR     68  60  76 S3        29.81R
BRADY          PTCLDY    70  64  83 S8        29.81S
$$

TXZ143>147-156>162-174-175-011100-
CENTRAL TEXAS

CITY           SKY/WX    TMP DP  RH WIND       PRES   REMARKS
WACO           CLOUDY    75  71  87 S14       29.81R
WACO-MCGREGOR  CLOUDY    75  66  73 S10G17    29.82R
HILLSBORO      CLOUDY    74  69  83 S12       29.81R
CORSICANA      MOCLDY    74  71  91 S7        29.82S
MEXIA          CLOUDY    73  72  96 SE5       29.81S
HEARNE         CLOUDY    74  73  96 SE5       29.81S FOG
CAMERON        CLOUDY    74  73  95 S7        29.81R
TEMPLE         CLOUDY    73  66  78 S10       29.80S
KILLEEN        CLOUDY    75  72  88 S7        29.81S
KILLEEN-SKYLRK CLOUDY    73  66  78 S6        29.80S
GATESVILLE     MOCLDY    73  72  94 S6        29.83S
HAMILTON       CLEAR     71  71 100 S9        29.82S
LAMPASAS       CLOUDY    76  73  90 S5        29.81S
$$

TXZ095>097-106>112-122>126-135>138-148>153-164>167-011100-
EAST TEXAS

CITY           SKY/WX    TMP DP  RH WIND       PRES   REMARKS
PARIS          CLEAR     70  61  73 SE7       29.83R
SULPHUR SPRNGS CLEAR     74  70  86 S7        29.84R
MOUNT PLEASANT CLEAR     69  68  96 CALM      29.84S
GILMER         CLEAR     73  73 100 SE3       29.85S
MINEOLA        CLEAR     72  72 100 CALM      29.83S
TYLER          CLEAR     73  70  90 S6        29.83S
LONGVIEW       MOCLDY    72  69  90 CALM      29.84R
MARSHALL       MOCLDY    73  71  91 CALM      29.86S
ATHENS         MOCLDY    70  70 100 CALM      29.82S
PALESTINE      PTCLDY    73  73 100 CALM      29.84S
HENDERSON      MOCLDY    69  69 100 MISG      29.85S FOG
NACOGDOCHES    CLOUDY    73  72  94 SE5       29.84S
LUFKIN         CLOUDY    77  73  87 E3        29.83R FOG
$$

SUPPLEMENTAL OBSERVATIONS (CENTRAL)

CITY           SKY/WX    TMP DP  RH WIND       PRES   REMARKS
CADDO GRASSLND   N/A     72  68  88 S3          N/A
PAT MAYSE LAKE   N/A     72  68  88 SE12        N/A
GREENVILLE       N/A     73  70  88 S6          N/A
CEDAR HILL       N/A     73  68  83 S7          N/A
PALESTINE        N/A     75  72  88 S2          N/A
MCGREGOR         N/A     75  70  83 S9G18       N/A
TEMPLE           N/A     73  68  83 S5          N/A
$$

SUPPLEMENTAL OBSERVATIONS (WEST)

CITY           SKY/WX    TMP DP  RH WIND       PRES   REMARKS
MILLERS CREEK    N/A     73  57  56 S9          N/A
POSSUM KINGDOM   N/A    N/A N/A N/A S8          N/A
LBJ GRASSLAND    N/A     73  64  73 SE8         N/A
GRANBURY         N/A     75  68  78 SE9         N/A
HAMBY            N/A    N/A N/A N/A S10         N/A
IVIE RESERVOIR   N/A     70  63  78 SE5         N/A
COLORADO BEND    N/A     73  68  83 S7G16       N/A
$$

SUPPLEMENTAL OBSERVATIONS (EAST)

CITY           SKY/WX    TMP DP  RH WIND       PRES   REMARKS
CLARKSVILLE      N/A     70  66  88 SE5         N/A
TEXARKANA        N/A     68  64  88 CALM        N/A
LINDEN           N/A     72  66  83 CALM        N/A
GILMER           N/A     72  68  88 SE2         N/A
HENDERSON        N/A     72  68  88 SE1         N/A
LUFKIN           N/A     75  72  88 MISG        N/A
S SABINE NF      N/A     73  70  88 CALM        N/A
$$

SUPPLEMENTAL OBSERVATIONS ARE A COLLECTION OF AUTOMATED INSTRUMENTS
THAT ARE MAINTAINED BY A VARIETY OF FEDERAL AND STATE AGENCIES.
CERTAIN ELEMENTS...SUCH AS HUMIDITY VALUES AND SUSTAINED WIND
SPEEDS...MAY BE APPROXIMATED.




USA.gov is the U.S. government's official web portal to all federal, state and local government web resources and services.